This is the latest recevied weather packets stored in our database for station/object KV9E. If no packets are shown the sender has not sent any weather packets the latest 10 day(s).
| Time | Temp. | Humidity | Pressure | Rain* | Wind** | Luminosity | Snow |
|---|---|---|---|---|---|---|---|
| 1788585593 | 23.89° C | 88% | 1015.3 hPa | 0 mm | - | 0 W/m² | - |
| 1788585288 | 23.89° C | 88% | 1015.5 hPa | 0 mm | - | 0 W/m² | - |
| 1788584986 | 23.89° C | 88% | 1015.6 hPa | 0 mm | - | 0 W/m² | - |
| 1788584681 | 23.89° C | 89% | 1015.4 hPa | 0 mm | - | 0 W/m² | - |
| 1788584376 | 23.89° C | 89% | 1015.4 hPa | 0 mm | - | 0 W/m² | - |
| 1788584065 | 23.89° C | 89% | 1015.5 hPa | 0 mm | - | 0 W/m² | - |
| 1788583761 | 23.89° C | 89% | 1015.1 hPa | 0 mm | - | 0 W/m² | - |
| 1788583450 | 23.89° C | 89% | 1015.4 hPa | 0 mm | - | 0 W/m² | - |
| 1788583149 | 24.44° C | 88% | 1015.4 hPa | 0 mm | - | 0 W/m² | - |
| 1788582843 | 24.44° C | 86% | 1015.6 hPa | 0 mm | - | 0 W/m² | - |
| 1788582538 | 24.44° C | 88% | 1015.6 hPa | 0 mm | - | 0 W/m² | - |
| 1788582233 | 25° C | 86% | 1015.5 hPa | 0 mm | - | 0 W/m² | - |
| 1788581927 | 24.44° C | 85% | 1015.2 hPa | 0 mm | - | 0 W/m² | - |
| 1788581624 | 24.44° C | 88% | 1015.3 hPa | 0 mm | - | 0 W/m² | - |
| 1788581318 | 23.89° C | 89% | 1015.4 hPa | 0 mm | - | 0 W/m² | - |
| 1788581016 | 23.89° C | 91% | 1015.4 hPa | 0 mm | - | 0 W/m² | - |
| 1788580710 | 23.89° C | 91% | 1015.5 hPa | 0 mm | - | 0 W/m² | - |
| 1788580406 | 23.89° C | 91% | 1015.6 hPa | 0 mm | - | 0 W/m² | - |
| 1788580102 | 23.89° C | 91% | 1015.5 hPa | 0 mm | - | 0 W/m² | - |
| 1788579798 | 24.44° C | 90% | 1015.6 hPa | 0 mm | - | 0 W/m² | - |
| 1788579496 | 24.44° C | 90% | 1015.6 hPa | 0 mm | - | 0 W/m² | - |
| 1788579192 | 24.44° C | 90% | 1015.7 hPa | 0 mm | - | 0 W/m² | - |
| 1788578891 | 25° C | 89% | 1015.6 hPa | 0 mm | - | 0 W/m² | - |
| 1788578587 | 25° C | 87% | 1015.9 hPa | 0 mm | - | 0 W/m² | - |
| 1788578282 | 25° C | 87% | 1015.8 hPa | 0 mm | - | 0 W/m² | - |
* Rain latest hour (hover to see other rain measurements)
** Current wind speed in m/s (hover to see current wind gust speed)